EW7405 Weather Reports


time (UTC)temp
F
wind
direction
speed
knots
gust
knots
rain 1hr
in
rain 24hr
in
rain mn
in
humidity
%
barometer
mb
20260507030041 42 340 0.0 0.0 0.04 1.25 1.25 97 1007.0
20260507024551 42 340 0.0 0.0 0.04 1.24 1.24 96 1007.7
20260507023039 42 340 0.0 0.0 0.03 1.23 1.23 96 1007.8
20260507021539 42 340 0.0 0.0 0.05 1.22 1.22 96 1007.6
20260507020037 43 327 0.0 0.0 0.05 1.21 1.21 96 1007.5
20260507014535 43 13 0.0 0.0 0.05 1.21 1.20 96 1007.1
20260507013038 43 360 0.0 0.0 0.06 1.21 1.20 96 1007.1
20260507011535 43 360 0.0 0.0 0.03 1.18 1.17 96 1007.0
20260507010038 43 360 0.0 0.0 0.01 1.15 1.14 96 1006.8
20260507004532 43 360 0.0 0.0 0.02 1.15 1.14 96 1006.4
20260507003032 43 355 0.0 0.0 0.02 1.14 1.13 96 1006.5
20260507001544 43 355 0.0 0.0 0.02 1.14 1.13 96 1006.1
20260507000031 43 5 0.0 0.0 0.01 1.13 1.12 96 1005.7
20260506234545 44 339 0.0 0.0 0.01 1.13 1.12 96 1006.1
20260506233029 44 339 0.0 0.0 0.00 1.12 1.12 95 1005.7
20260506231534 44 300 0.0 0.0 0.00 1.12 1.12 95 1005.7
20260506230027 44 248 0.0 4.3 0.00 1.12 1.12 95 1005.4
20260506224529 44 15 0.0 0.0 0.03 1.12 1.12 95 1005.4
20260506223024 44 332 0.0 2.6 0.06 1.12 1.12 95 1005.1
20260506221524 45 334 0.0 0.0 0.09 1.12 1.12 95 1004.9
20260506220032 45 306 0.0 0.0 0.11 1.12 1.12 96 1005.0
20260506214522 45 355 0.0 0.0 0.09 1.11 1.09 96 1005.1
20260506213021 45 360 0.0 0.0 0.07 1.08 1.06 94 1005.0
20260506211521 46 5 0.0 1.7 0.05 1.05 1.03 94 1005.2
20260506210017 47 332 0.0 0.0 0.03 1.03 1.01 95 1004.8
20260506204515 47 338 0.0 0.0 0.02 1.17 1.00 96 1004.7
20260506203015 47 355 0.0 0.0 0.02 1.15 0.99 96 1004.4
20260506201516 48 40 0.0 0.0 0.01 1.14 0.98 95 1004.3
20260506200013 48 11 0.0 0.0 0.02 1.14 0.98 96 1004.3
20260506194513 48 51 0.0 0.0 0.02 1.14 0.98 96 1004.4
20260506193012 48 22 0.0 0.0 0.02 1.13 0.97 97 1004.6
20260506191512 47 5 0.0 0.0 0.05 1.13 0.97 96 1004.7
20260506190010 47 355 0.0 0.0 0.09 1.12 0.96 96 1004.7
20260506184510 47 9 0.0 0.0 0.11 1.12 0.96 96 1004.7
20260506183010 47 5 0.0 0.0 0.12 1.12 0.95 96 1004.9
20260506181510 47 355 0.0 0.0 0.15 1.09 0.92 96 1005.3
20260506180007 47 187 0.0 1.7 0.12 1.04 0.87 95 1005.5
20260506174506 48 70 0.0 1.7 0.13 1.02 0.85 96 1005.3
20260506173002 50 181 0.0 8.7 0.12 0.99 0.82 94 1005.1
20260506171502 53 176 0.0 0.0 0.09 0.94 0.77 97 1004.6
20260506170110 52 19 0.0 0.0 0.09 0.92 0.75 97 1004.5
20260506164559 52 9 0.0 0.0 0.08 0.89 0.72 97 1004.8
20260506163058 52 9 0.0 0.0 0.09 0.87 0.70 97 1004.9
20260506161558 52 9 0.0 0.0 0.09 0.85 0.68 97 1005.4
20260506160108 51 9 0.0 0.0 0.09 0.83 0.66 96 1005.6
20260506154550 51 9 0.0 0.0 0.10 0.81 0.64 97 1006.0
20260506153052 51 9 0.0 0.0 0.09 0.78 0.61 96 1006.1
20260506151548 50 9 0.0 0.0 0.10 0.76 0.59 96 1006.2
20260506150050 50 9 0.0 0.0 0.10 0.74 0.56 97 1006.4
20260506144550 50 9 0.0 0.0 0.08 0.71 0.54 96 1006.3
20260506143047 50 121 0.0 0.0 0.10 0.69 0.52 96 1006.9
20260506141547 51 119 0.0 0.0 0.08 0.66 0.49 97 1006.6
20260506140046 50 38 0.0 0.0 0.09 0.64 0.47 97 1006.0
20260506134547 50 360 0.0 0.0 0.09 0.63 0.46 96 1006.5
20260506133042 50 360 0.0 0.0 0.06 0.59 0.42 96 1006.8
20260506131556 51 355 0.0 0.0 0.05 0.57 0.41 96 1007.0
20260506130049 51 355 0.0 0.0 0.02 0.55 0.38 96 1007.2
20260506124541 51 342 0.0 0.0 0.01 0.54 0.37 96 1007.0
20260506123041 50 342 0.0 0.0 0.00 0.53 0.36 96 1007.1
20260506121540 50 341 0.0 0.0 0.00 0.53 0.36 96 1006.9
20260506120040 50 38 0.0 0.0 0.00 0.53 0.36 96 1006.9
20260506114538 50 26 0.0 0.0 0.00 0.53 0.36 97 1006.8
20260506113036 50 67 0.0 0.0 0.00 0.53 0.36 97 1006.8
20260506111534 50 15 0.0 0.0 0.00 0.53 0.36 97 1007.2
20260506110034 50 55 0.0 0.0 0.00 0.53 0.36 97 1007.2
20260506104532 50 55 0.0 0.0 0.00 0.53 0.36 97 1007.5
20260506103038 50 55 0.0 0.0 0.00 0.53 0.36 97 1007.4
20260506101533 50 55 0.0 0.0 0.00 0.53 0.36 97 1007.5
20260506100035 50 55 0.0 0.0 0.00 0.53 0.36 97 1007.5
20260506094535 50 55 0.0 0.0 0.02 0.53 0.36 97 1007.7
20260506093034 50 56 0.0 0.0 0.02 0.53 0.36 97 1007.9
20260506091528 50 55 0.0 0.0 0.02 0.53 0.36 97 1008.1
20260506090025 50 55 0.0 0.0 0.02 0.53 0.36 97 1007.8
20260506084524 50 39 0.0 0.0 0.00 0.51 0.34 97 1007.5
20260506083023 50 39 0.0 0.0 0.05 0.51 0.34 97 1008.0
20260506081528 50 39 0.0 0.0 0.05 0.51 0.34 96 1007.6
20260506073018 50 235 0.0 0.0 0.02 0.46 0.28 96 1007.9
20260506071518 50 235 0.0 0.0 0.02 0.46 0.28 96 1008.1
20260506061515 51 312 0.0 0.0 0.07 0.44 0.27 95 1007.9
20260506044507 52 186 0.0 0.0 0.16 0.33 0.16 95 1008.5
20260506043005 52 323 0.0 1.7 0.09 0.26 0.09 96 1008.2
20260506041504 53 292 0.0 0.9 0.06 0.23 0.06 97 1007.7
20260506040058 53 5 0.0 0.0 0.01 0.18 0.01 97 1007.1
20260506034600 53 35 0.0 0.0 0.00 0.17 0.17 96 1006.7
20260506033057 53 35 0.0 0.0 0.00 0.17 0.17 96 1006.8
20260506031559 53 35 0.0 0.0 0.00 0.17 0.17 97 1006.6